Tracking 33181 objects as of 19-Feb-2026
HD Live streaming from Space Station
objects crossing your sky now

THORAD DELTA 1 DEB


10-day predictions


NORAD ID: 8152
Int'l Code: 1974-089S
Perigee: 1,383.1 km
Apogee: 1,476.1 km
Inclination: 101.9 °
Period: 114.3 minutes
Semi major axis: 7800 km
RCS: 0.0989 m2 (small)
Launch date: November 15, 1974
Source: United States (US)
Launch site: AIR FORCE WESTERN TEST RANGE (AFWTR)

Note: This is SATELLITE DEBRIS
Your satellite tracking list
Your tracking list is empty




NASA's NSSDC Master Catalog

Two Line Element Set (TLE):
1  8152U 74089S   26049.95792927  .00000010  00000-0  32622-3 0  9994
2  8152 101.8526  57.3314 0059615 222.2976 194.6858 12.60127908355796
Source of the keplerian elements: AFSPC